www.pogodaiklimat.ru

Погода и климат >> Архив погоды >> Ирландия >> Обсерватория Мейс-Хед


ПОГОДА в Обсерватории Мейс-Хед

  • Прогноз погоды в Обсерватории Мейс-Хед
  • Монитор погоды в Обсерватории Мейс-Хед

АРХИВ ПОГОДЫ в Обсерватории Мейс-Хед

Время (UTC), дата Ветер
(напр.,м/с)
 
Видим.   Явления Облачность Т
(С)
Тd
(С)
f
(%)
Тe
(С)
Тes
(С)
Комфортность P
(гПа)
Po
(гПа)
Тmin
(С)
Tmax
(С)
R
(мм)
R24
(мм)
S
(см)
16 12.01 З 11 7000 м дымка н/о +9.7 +9.0 95 +5 +5 1027.7 1024.9
17 12.01 З 10 4800 м дымка н/о +9.4 +8.9 97 +4 +4 1027.4 1024.5
18 12.01 З 11 5000 м дымка {ливн. осадки} н/о +9.3 +8.8 97 +4 +4 1027.3 1024.4 +9.8 0.0
20 12.01 З 11 8000 м дымка н/о +9.5 +8.7 95 +4 +4 1026.9 1024.0
19 12.01 З 11 5000 м дымка н/о +9.2 +8.7 97 +4 +4 1027.2 1024.3
21 12.01 З 10 11 км н/о +9.6 +8.3 92 +5 +5 1026.1 1023.2
22 12.01 З 13 11 км н/о +9.8 +8.1 89 +5 +5 1026.4 1023.5
23 12.01 З 12 8000 м дымка н/о +9.5 +8.1 91 +4 +4 1025.9 1023.1
00 13.01 З 11 3700 м морось {дымка} н/о +9.3 +8.3 93 +4 +4 1025.5 1022.6 0.0
02 13.01 З 10 11 км в посл. час морось н/о +9.4 +8.1 92 +5 +5 1024.2 1021.3
01 13.01 З 12 2500 м слаб. ливневой дождь н/о +9.0 +8.3 95 +4 +4 1024.7 1021.8
03 13.01 З 12 12 км {ливн. осадки, морось} н/о +9.5 +7.5 87 +4 +4 1024.0 1021.1
04 13.01 З 10 11 км н/о +9.6 +7.9 89 +5 +5 1023.2 1020.3
05 13.01 З 12 10 км н/о +9.7 +7.8 88 +5 +5 1022.0 1019.2
06 13.01 З 15
{19}
10 км {ливн. осадки, морось} н/о +9.9 +8.1 89 +4 +4 1021.7 1018.8 +9.0 0.1
08 13.01 З 14 6000 м дымка н/о +10.1 +9.0 93 +5 +5 1020.6 1017.8
07 13.01 З 14
{18}
7000 м дымка н/о +9.9 +8.6 92 +5 +5 1021.0 1018.2
09 13.01 З 14
{18}
3100 м дымка н/о +10.1 +9.3 95 +5 +5 1020.7 1017.8
10 13.01 З 14
{18}
3100 м дымка н/о +10.2 +9.6 96 +5 +5 1020.8 1017.9
11 13.01 З 14
{18}
6000 м дымка н/о +10.4 +9.8 96 +5 +5 1020.7 1017.9
12 13.01 З 15
{18}
7000 м дымка н/о +10.4 +9.7 95 +5 +5 1020.2 1017.4
14 13.01 СЗ 13
{18}
9000 м дымка н/о +10.5 +8.5 87 +6 +6 1020.2 1017.3
13 13.01 СЗ 13
{17}
10 км слаб. ливневой дождь н/о +10.3 +9.6 95 +5 +5 1020.1 1017.3
15 13.01 СЗ 13
{18}
10 км дымка {ливн. осадки} н/о +10.1 +7.5 84 +5 +5 1020.3 1017.5
16 13.01 СЗ 12 11 км н/о +9.8 +6.2 78 +5 +5 1020.3 1017.5
17 13.01 СЗ 12
{17}
11 км н/о +9.6 +6.1 79 +5 +5 1020.9 1018.1
18 13.01 СЗ 10 11 км {ливн. осадки, дымка} н/о +9.3 +5.2 76 +5 +5 1021.6 1018.8 +10.6 0.0
20 13.01 СЗ 9 14 км н/о +9.1 +4.4 72 +5 +5 1022.4 1019.6
19 13.01 СЗ 10 15 км н/о +9.1 +4.0 70 +4 +4 1022.1 1019.3
21 13.01 СЗ 9 14 км н/о +9.2 +4.2 71 +5 +5 1022.9 1020.0
22 13.01 СЗ 9 14 км н/о +9.2 +4.2 71 +5 +5 1023.3 1020.5
23 13.01 СЗ 10 17 км н/о +9.1 +3.3 67 +5 +5 1023.9 1021.1
00 14.01 СЗ 10 19 км н/о +8.9 +3.3 68 +4 +4 1024.0 1021.2
02 14.01 СЗ 10 18 км н/о +9.0 +4.1 71 +4 +4 1024.2 1021.4
01 14.01 СЗ 9 20 км н/о +8.9 +3.7 70 +4 +4 1024.3 1021.4
03 14.01 СЗ 8 16 км н/о +8.9 +4.6 74 +5 +5 1024.5 1021.6
04 14.01 СЗ 8 27 км н/о +8.8 +3.8 71 +5 +5 1024.8 1021.9
05 14.01 СЗ 6 20 км н/о +8.6 +3.4 70 +5 +5 1024.8 1021.9
06 14.01 СЗ 9 24 км н/о +8.8 +3.7 70 +4 +4 1024.8 1021.9 +8.6
08 14.01 З 5 15 км н/о +8.9 +4.4 73 +6 +6 1025.0 1022.1
07 14.01 СЗ 7 19 км н/о +8.8 +3.8 71 +5 +5 1024.6 1021.7
09 14.01 З 7 13 км н/о +9.2 +5.3 77 +5 +5 1025.1 1022.2
10 14.01 З 7 13 км н/о +9.2 +5.4 77 +5 +5 1025.0 1022.2
11 14.01 З 8 16 км н/о +9.5 +5.5 76 +5 +5 1025.0 1022.1
12 14.01 З 8 12 км н/о +9.7 +6.0 78 +6 +6 1024.7 1021.8
14 14.01 ЮЗ 7 6000 м дымка н/о +9.5 +8.1 91 +5 +5 1023.7 1020.8
13 14.01 З 8 13 км н/о +9.7 +6.9 83 +6 +6 1024.2 1021.3
15 14.01 З 8 н/о н/о +9.5 +8.6 94 +5 +5 1023.2 1020.3
16 14.01 З 8 17 км слаб. ливневой дождь н/о +9.2 +8.0 92 +5 +5 1022.9 1020.0
17 14.01 З 8 н/о н/о +9.1 +8.0 93 +5 +5 1022.8 1019.9
18 14.01 З 8 н/о н/о +9.0 +8.1 94 +4 +4 1022.7 1019.8 +9.8 0.3
20 14.01 З 7 23 км н/о +9.3 +8.2 93 +5 +5 1022.0 1019.1
19 14.01 З 9 19 км н/о +9.3 +8.2 93 +5 +5 1022.4 1019.5
21 14.01 ЮЗ 8 19 км н/о +9.5 +8.3 92 +5 +5 1021.7 1018.9
22 14.01 З 9 13 км н/о +9.8 +8.7 93 +5 +5 1021.5 1018.7
23 14.01 ЮЗ 9 13 км н/о +9.9 +8.7 92 +5 +5 1021.1 1018.2
00 15.01 ЮЗ 9 13 км н/о +9.9 +8.8 93 +5 +5 1020.9 1018.1
02 15.01 ЮЗ 9 15 км н/о +10.0 +8.6 91 +6 +6 1020.0 1017.1
01 15.01 ЮЗ 9 15 км н/о +10.0 +8.6 91 +6 +6 1020.6 1017.8
03 15.01 ЮЗ 10 15 км н/о +10.0 +8.5 90 +5 +5 1019.5 1016.7
04 15.01 ЮЗ 9 14 км н/о +10.0 +8.6 91 +6 +6 1018.8 1015.9
05 15.01 ЮЗ 9 13 км н/о +9.9 +8.6 92 +5 +5 1018.2 1015.3
06 15.01 ЮЗ 10 15 км н/о +10.0 +8.5 90 +5 +5 1019.5 1016.7
08 15.01 ЮЗ 8 25 км н/о +9.6 +7.5 87 +5 +5 1016.5 1013.6
07 15.01 ЮЗ 9 17 км н/о +9.8 +8.2 90 +5 +5 1017.0 1014.2
09 15.01 ЮЗ 10 17 км в посл. час морось {ливн. осадки} н/о +9.3 +8.4 94 +4 +4 1015.9 1013.1
10 15.01 ЮЗ 11 13 км в посл. час морось {ливн. осадки} н/о +9.8 +8.6 92 +5 +5 1015.4 1012.6
11 15.01 ЮЗ 11 16 км {ливн. осадки} н/о +9.9 +8.7 92 +5 +5 1014.7 1011.9
12 15.01 ЮЗ 11 2900 м слаб. ливневой дождь н/о +9.7 +9.0 95 +5 +5 1013.9 1011.0 0.5
14 15.01 ЮЗ 10 14 км в посл. час морось {ливн. осадки} н/о +9.9 +8.9 93 +5 +5 1011.7 1008.8
13 15.01 ЮЗ 10 14 км в посл. час морось н/о +10.1 +9.0 93 +6 +6 1012.7 1009.9
15 15.01 ЮЗ 10 14 км {ливн. осадки, морось} н/о +10.1 +8.3 89 +6 +6 1010.8 1007.9
16 15.01 ЮЗ 12 18 км н/о +10.3 +6.7 78 +6 +6 1009.6 1006.8
17 15.01 ЮЗ 11 16 км н/о +10.2 +7.4 83 +6 +6 1008.9 1006.1
18 15.01 ЮЗ 10 13 км {ливн. осадки, морось} н/о +9.9 +7.6 86 +5 +5 1008.1 1005.3 +10.4 0.7
20 15.01 ЮЗ 12 10 км н/о +10.0 +7.9 87 +5 +5 1006.0 1003.2
19 15.01 ЮЗ 11 12 км н/о +9.7 +7.6 87 +5 +5 1007.1 1004.3
21 15.01 ЮЗ 12 10 км в посл. час морось н/о +9.9 +7.8 87 +5 +5 1005.1 1002.3
22 15.01 ЮЗ 13 4900 м слаб. ливневой дождь н/о +9.9 +8.3 90 +5 +5 1004.2 1001.4
23 15.01 З 15
{19}
н/о слаб. ливневой дождь н/о +7.4 +6.0 91 +1 +1 1004.3 1001.4
00 16.01 З 11
{17}
8000 м слаб. дождь н/о +7.6 +5.7 88 +2 +2 1004.6 1001.8 2
02 16.01 З 11
{18}
11 км слаб. ливневой дождь н/о +7.9 +5.1 82 +2 +2 1003.8 1001.0
01 16.01 З 11 14 км в посл. час морось н/о +8.6 +5.5 81 +3 +3 1003.9 1001.1
03 16.01 СЗ 14
{17}
16 км {ливн. осадки, морось} н/о +7.0 +4.1 82 +1 +1 1004.1 1001.2
04 16.01 З 11 16 км н/о +8.0 +2.3 67 +3 +3 1003.8 1001.0
05 16.01 З 10 20 км н/о +8.1 +2.7 69 +3 +3 1003.5 1000.7
06 16.01 З 12 23 км {ливн. осадки, морось} н/о +8.0 +1.6 64 +3 +3 1003.0 1000.2 +7.0 2
08 16.01 З 12 20 км н/о +7.7 +2.5 70 +2 +2 1002.5 999.7
07 16.01 З 12 19 км н/о +8.0 +1.2 62 +3 +3 1002.7 999.8
09 16.01 З 11
{21}
21 км в посл. час дождь {ливн. осадки} н/о +6.8 +2.5 74 +1 +1 1002.2 999.3
10 16.01 З 13
{18}
15 км н/о +8.0 +3.4 73 +2 +2 1001.2 998.4
11 16.01 З 10 20 км слаб. ливневой дождь н/о +6.8 +3.2 78 +1 +1 1001.1 998.3
12 16.01 З 9 16 км слаб. ливневой дождь н/о +6.8 +3.6 80 +1 +1 1000.8 998.0 0.8
14 16.01 СЗ 10 22 км слаб. ливневой дождь н/о +6.5 +3.5 81 +1 +1 1001.7 998.9
13 16.01 СЗ 8 13 км слаб. ливневой дождь н/о +6.5 +4.6 88 +1 +1 1001.1 998.2
15 16.01 СЗ 11 12 км слаб. ливневой дождь н/о +6.4 +3.5 82 0 0 1002.5 999.6
16 16.01 С 10
{19}
30 км слаб. ливневой дождь н/о +6.0 +3.1 82 0 0 1003.7 1000.8
17 16.01 СЗ 12
{19}
50 км {ливн. осадки} н/о +5.7 +1.7 75 -1 -1 1004.6 1001.8
18 16.01 СЗ 10 26 км {ливн. осадки} н/о +6.3 +2.4 76 +1 +1 1005.4 1002.5 +8.2 2
20 16.01 СЗ 11
{18}
11 км слаб. ливневой дождь н/о +6.8 +3.9 82 +1 +1 1006.7 1003.9
19 16.01 СЗ 13
{20}
23 км слаб. ливневой дождь н/о +6.5 +3.4 81 0 0 1005.7 1002.9
21 16.01 СЗ 14
{18}
18 км {ливн. осадки} н/о +7.4 +2.8 73 +1 +1 1007.3 1004.5
22 16.01 СЗ 15
{24}
10 км морось н/о +7.1 +3.6 78 +1 +1 1007.6 1004.8
23 16.01 С 13
{20}
н/о н/о +6.0 +3.7 85 -1 -1 1009.7 1006.8
00 17.01 С 14
{19}
17 км в посл. час дождь н/о +6.3 +3.8 84 -1 -1 1011.7 1008.8 1
02 17.01 С 10 17 км в посл. час морось н/о +5.8 +1.1 72 -0 -0 1014.7 1011.8
01 17.01 С 11
{20}
29 км в посл. час морось {ливн. осадки} н/о +5.9 +2.0 76 -0 -0 1013.6 1010.7
03 17.01 С 4 18 км {ливн. осадки, морось} н/о +4.1 -0.6 71 0 0 1015.8 1012.9
04 17.01 С 5 24 км н/о +4.7 -1.5 64 0 0 1016.5 1013.6
05 17.01 СЗ 5 21 км н/о +5.1 -1.6 62 +1 +1 1017.5 1014.6
06 17.01 С 2 16 км {ливн. осадки, морось} н/о +4.1 -1.4 67 +2 +2 1017.7 1014.8 +3.3 1
08 17.01 В 2 21 км н/о +2.6 -1.5 74 -0 -0 1018.7 1015.8
07 17.01 СВ 3 21 км н/о +3.9 -0.8 71 0 0 1018.6 1015.6
09 17.01 СЗ 1 13 км н/о +3.5 -1.6 69 +2 +2 1019.1 1016.2
10 17.01 ЮВ 2 28 км н/о +2.8 -1.3 74 -0 -0 1019.6 1016.7
11 17.01 В 2 21 км н/о +3.7 0.0 77 +1 +1 1019.6 1016.7
12 17.01 В 2 24 км н/о +5.1 +2.0 80 +3 +3 1019.3 1016.4
14 17.01 ЮВ 4 24 км н/о +5.3 -0.2 68 +2 +2 1017.8 1014.9
13 17.01 В 4 25 км н/о +5.5 +1.7 76 +2 +2 1018.4 1015.5
15 17.01 Ю 7 25 км н/о +6.0 -1.5 59 +1 +1 1017.3 1014.4
16 17.01 Ю 8 30 км н/о +5.9 -0.4 64 +1 +1 1016.7 1013.8
17 17.01 ЮВ 9 25 км н/о +5.8 +1.0 71 0 0 1015.8 1012.9
18 17.01 Ю 10 26 км н/о +5.8 +0.5 69 -0 -0 1014.5 1011.6 +6.2
20 17.01 Ю 10 25 км слаб. ливневой дождь н/о +5.7 +0.4 69 -0 -0 1012.5 1009.6
19 17.01 ЮВ 10 26 км н/о +5.8 +0.3 68 0 0 1013.6 1010.8
21 17.01 ЮВ 12 25 км слаб. ливневой дождь н/о +5.1 +1.5 78 -2 -2 1011.3 1008.5
22 17.01 ЮВ 12 8000 м дымка н/о +4.5 +2.6 87 -3 -3 1010.2 1007.3
23 17.01 ЮВ 13
{18}
н/о н/о +4.5 +2.8 89 -3 -3 1008.7 1005.8
00 18.01 ЮВ 12
{18}
14 км слаб. дождь н/о +4.7 +3.0 89 -2 -2 1007.4 1004.5 2
02 18.01 ЮВ 13
{18}
н/о н/о +6.0 +4.7 91 -1 -1 1004.3 1001.5
01 18.01 ЮВ 13
{19}
н/о н/о +5.2 +3.9 91 -2 -2 1005.9 1003.0
03 18.01 Ю 12
{18}
н/о н/о +6.9 +5.9 93 +1 +1 1003.9 1001.0
04 18.01 Ю 7 н/о н/о +8.2 +7.3 94 +4 +4 1003.3 1000.5
05 18.01 ЮЗ 6 17 км в посл. час дождь {ливн. осадки} н/о +8.6 +6.6 87 +5 +5 1003.1 1000.3
06 18.01 ЮЗ 7 24 км слаб. ливневой дождь н/о +8.5 +6.0 84 +4 +4 1002.7 999.9 +4.4 4
08 18.01 ЮЗ 7 25 км н/о +8.0 +6.1 88 +3 +3 1002.5 999.6
07 18.01 ЮЗ 6 20 км в посл. час дождь {ливн. осадки} н/о +8.2 +6.0 86 +4 +4 1002.6 999.8
09 18.01 ЮЗ 7 22 км {ливн. осадки} н/о +8.3 +5.8 84 +4 +4 1002.7 999.8
10 18.01 ЮЗ 7 40 км н/о +8.4 +5.3 81 +4 +4 1002.9 1000.1
11 18.01 ЮЗ 7 22 км н/о +8.6 +6.2 85 +4 +4 1003.1 1000.3
12 18.01 ЮЗ 7 16 км в посл. час дождь {ливн. осадки} н/о +9.4 +6.8 84 +5 +5 1002.8 999.9 0.1
14 18.01 ЮЗ 7 10 км н/о +9.3 +6.7 84 +5 +5 1001.9 999.1
13 18.01 ЮЗ 8 13 км н/о +9.5 +6.3 80 +5 +5 1002.3 999.5
15 18.01 ЮЗ 9 10 км слаб. ливневой дождь н/о +8.9 +6.7 86 +4 +4 1001.3 998.5
16 18.01 ЮЗ 8 14 км слаб. морось {дождь} н/о +8.4 +6.7 89 +4 +4 1001.2 998.4
17 18.01 ЮЗ 7 13 км в посл. час дождь н/о +8.6 +6.9 89 +4 +4 1001.1 998.3
18 18.01 ЮЗ 6 11 км в посл. час морось {ливн. осадки, дождь} н/о +8.5 +6.8 89 +4 +4 1001.3 998.5 +9.9 1
20 18.01 З 6 15 км в посл. час морось {ливн. осадки} н/о +8.4 +6.2 86 +4 +4 1001.4 998.6
19 18.01 З 8 13 км н/о +8.5 +6.1 85 +4 +4 1001.2 998.4
21 18.01 З 6 12 км слаб. ливневой дождь н/о +8.8 +6.9 88 +5 +5 1001.6 998.8
22 18.01 СЗ 6 8000 м морось н/о +8.5 +6.9 90 +4 +4 1001.9 999.1
23 18.01 З 6 5000 м слаб. ливневой дождь н/о +7.9 +5.9 87 +4 +4 1002.1 999.3
00 19.01 З 4 9000 м слаб. ливневой дождь {морось} н/о +8.1 +6.4 89 +5 +5 1002.5 999.6 2
02 19.01 З 5 16 км н/о +8.2 +6.3 88 +4 +4 1002.4 999.6
01 19.01 З 6 16 км н/о +8.3 +6.3 87 +4 +4 1002.4 999.6
03 19.01 З 5 11 км н/о +8.4 +6.5 88 +5 +5 1002.6 999.8
04 19.01 З 4 8000 м дымка н/о +8.5 +6.9 90 +5 +5 1002.6 999.8
05 19.01 З 2 7000 м в посл. час дождь {ливн. осадки} н/о +7.8 +6.5 91 +6 +6 1002.7 999.9
06 19.01 З 1 16 км в посл. час дождь {ливн. осадки} н/о +7.0 +6.1 94 +6 +6 1003.0 1000.2 +6.9 2
08 19.01 СЗ 3 н/о н/о +7.8 +7.1 95 +5 +5 1003.9 1001.1
07 19.01 С 1 10 км слаб. ливневой дождь н/о +7.4 +6.6 95 +6 +6 1003.5 1000.7
09 19.01 СЗ 2 н/о н/о +7.3 +6.7 96 +5 +5 1004.6 1001.8
10 19.01 СЗ 2 н/о н/о +7.8 +7.2 96 +6 +6 1005.3 1002.5
11 19.01 С 2 12 км н/о +8.0 +7.5 97 +6 +6 1005.8 1002.9
12 19.01 СЗ 2 11 км н/о +8.3 +7.8 97 +6 +6 1006.1 1003.3 2
14 19.01 З 4 11 км н/о +9.5 +8.1 91 +7 +7 1006.3 1003.5
13 19.01 СЗ 3 20 км н/о +8.9 +7.9 93 +6 +6 1006.1 1003.2

 

Местоположение метеостанции Обсерватория Мейс-Хед (Ирландия): широта 53.32 долгота -9.90 высота над уровнем моря 21 м.

В архиве по умолчанию представлена погода в Обсерватории Мейс-Хед за последнюю неделю. Архивные данные за месяц целиком и за предыдущие месяцы, начиная с января 2011 года, Вы можете получить, выбрав интересующий диапазон дат из раскрывающегося списка и нажав кнопку "Ввод!".


*Определитесь, кто Вы:
робот инопланетянин человек

Внимание! Время в таблицах - всемирное. Для получения местного времени необходимо прибавить поправку, которая равна 0 ч.

Смотрите также архив погоды в соседних городах и на ближайших метеорологических станциях:

Погода в Крэрморрисе (Ирландия) (74 км)
Погода в Аэропорту Шэннон (Ирландия) (96 км)
Погода в Аэропорту Нок (Ирландия) (97 км)
Погода в Белмаллете (Ирландия) (101 км)
Погода в Гортине (Ирландия) (130 км)
Погода в Обсерватории Валентия (Ирландия) (156 км)
Погода на Финнер-роуд (Ирландия) (170 км)
Погода в Муллингаре (Ирландия) (170 км)
Погода в Томастауне (Великобритания) (189 км)
Погода в Баллихейзе (Ирландия) (189 км)

Пояснения к столбцам:

Ветер - указаны скорость ветра в м/с - средняя за 10 мин, порывы в срок и между сроками (в фигурных скобках) и направление, откуда дует ветер: С - северный, СВ - северо-восточный, В - восточный, ЮВ - юго-восточный, Ю - южный, ЮЗ - юго-западный, З - западный, СЗ - северо-западный.
Видимость - горизонтальная дальность видимости в метрах или километрах. При видимости от 1 до 10 км при отсутствии осадков обычно наблюдается дымка, при ухудшении видимости до 1 км и менее - туман. В сухую погоду видимость может ухудшаться дымом, пылью или мглою.
Явления - указаны атмосферные явления, наблюдавшиеся в срок или в последний час перед сроком; фигурными скобками обозначены явления, наблюдавшиеся между сроками (за 1-3 часа до срока); квадратными скобками обозначены град или гололедные отложения с указанием их диаметра в мм.
Облачность - указаны через наклонную черту общая и нижняя облачность в баллах и высота нижней границы облаков в метрах; квадратными скобками обозначены формы облаков: Ci - перистые, Cs - перисто-слоистые, Cc - перисто-кучевые, Ac - высококучевые, As - высокослоистые, Sc - слоисто-кучевые, Ns - слоисто-дождевые, Cu - кучевые, Cb - кучево-дождевые. Подробнее классификацию облаков см. в Атласе облаков (PDF).
T - Температура воздуха - температура, измеренная на высоте 2 м над землей.
Td - Температура точки росы - температура, при понижении до которой содержащийся в воздухе водяной пар достигнет насыщения.
f - Относительная влажность воздуха - влажноcть воздуха, измеренная на высоте 2 м над землей.
Te - Эффективная температура - температура, которую ощущает одетый по сезону человек в тени. Характеристика душности погоды. При расчете учитывается влияние влажности воздуха и скорости ветра на теплоощущения человека.
Tes - Эффективная температура на солнце - температура, которую ощущает человек, с поправкой на солнечный нагрев. Характеристика знойности погоды. Зависит от высоты солнца над горизонтом, облачности и скорости ветра. Ночью, в пасмурную погоду, а также при ветре 12 м/с и более поправка равна нулю.
P - Атмосферное давление - приведенное к уровню моря атмосферное давление.
Po - Атмосферное давление - измеренное на уровне метеостанции атмосферное давление.
Tmin - Минимальная температура - минимум температуры воздуха на высоте 2 м над землей.
Tmax - Максимальная температура - максимум температуры воздуха на высоте 2 м над землей.
R - Количество осадков - Количество выпавших осадков за период времени, мм. При наведении курсора мыши на число - период времени, за который выпало указанное количество осадков.
R24 - Количество осадков - Количество выпавших осадков за 24 часа, мм.
S - Снежный покров - Высота снежного покрова, см. При наведении курсора мыши на число - состояние снежного покрова и степень покрытия местности в баллах.